Tracking 29892 objects as of 21-Nov-2024
HD Live streaming from Space Station
objects crossing your sky now

STARLINK-30410

Track STARLINK-30410 now!
10-day predictions
STARLINK-30410 is classified as:


NORAD ID: 57841
Int'l Code: 2023-141B
Perigee: 481.5 km
Apogee: 483.2 km
Inclination: 53.2 °
Period: 94.1 minutes
Semi major axis: 6853 km
RCS: Unknown
Launch date: September 12, 2023
Source: United States (US)
Launch site: AIR FORCE WESTERN TEST RANGE (AFWTR)
Your satellite tracking list
Your tracking list is empty




NASA's NSSDC Master Catalog

Two Line Element Set (TLE):
1 57841U 23141B   24325.42555739 -.00000786  00000-0 -14432-4 0  9993
2 57841  53.1605 327.0134 0001277  85.2719 274.8428 15.30195310 67710
Source of the keplerian elements: AFSPC